TimeCDT,TemperatureF,Dew PointF,Humidity,Sea Level PressureIn,VisibilityMPH,Wind Direction,Wind SpeedMPH,Gust SpeedMPH,PrecipitationIn,Events,Conditions,WindDirDegrees,DateUTC
12:53 AM,82.0,63.0,52,29.99,10.0,SSE,10.4,-,N/A,,Overcast,160,2012-09-27 05:53:00
1:53 AM,81.0,64.9,58,30.01,10.0,South,9.2,-,N/A,,Overcast,180,2012-09-27 06:53:00
2:53 AM,80.1,66.0,62,30.01,10.0,South,11.5,-,N/A,,Overcast,190,2012-09-27 07:53:00
3:53 AM,79.0,66.0,64,30.00,10.0,South,12.7,-,N/A,,Overcast,170,2012-09-27 08:53:00
4:53 AM,77.0,66.9,71,29.99,10.0,South,10.4,-,N/A,,Overcast,180,2012-09-27 09:53:00
5:53 AM,75.9,66.9,74,30.01,10.0,South,9.2,-,N/A,,Mostly Cloudy,190,2012-09-27 10:53:00
6:53 AM,75.9,68.0,76,30.04,10.0,SSW,5.8,-,N/A,,Mostly Cloudy,200,2012-09-27 11:53:00
7:53 AM,75.0,68.0,79,30.06,10.0,SSW,6.9,-,N/A,,Mostly Cloudy,200,2012-09-27 12:53:00
8:32 AM,77.0,68.0,74,30.10,10.0,South,4.6,-,N/A,,Mostly Cloudy,190,2012-09-27 13:32:00
8:53 AM,78.1,68.0,71,30.07,10.0,SSW,6.9,-,N/A,,Mostly Cloudy,210,2012-09-27 13:53:00
9:53 AM,80.1,68.0,67,30.07,10.0,SW,10.4,-,N/A,,Mostly Cloudy,220,2012-09-27 14:53:00
10:53 AM,82.0,66.9,60,30.07,10.0,SSW,9.2,-,N/A,,Mostly Cloudy,200,2012-09-27 15:53:00
11:53 AM,82.9,66.0,56,30.05,10.0,Variable,4.6,-,N/A,,Mostly Cloudy,0,2012-09-27 16:53:00
12:53 PM,87.1,63.0,44,30.05,10.0,SSW,9.2,-,N/A,,Mostly Cloudy,200,2012-09-27 17:53:00
1:53 PM,89.1,61.0,39,30.02,10.0,Variable,6.9,-,N/A,,Mostly Cloudy,0,2012-09-27 18:53:00
2:53 PM,90.0,59.0,35,29.99,10.0,SSE,6.9,-,N/A,,Mostly Cloudy,160,2012-09-27 19:53:00
3:53 PM,90.0,59.0,35,29.98,10.0,South,5.8,-,N/A,,Mostly Cloudy,190,2012-09-27 20:53:00
4:53 PM,89.1,59.0,36,29.97,10.0,WSW,4.6,-,N/A,,Mostly Cloudy,240,2012-09-27 21:53:00
5:53 PM,89.1,57.0,34,29.97,10.0,WSW,5.8,-,N/A,,Overcast,240,2012-09-27 22:53:00
6:53 PM,87.1,57.0,36,29.97,10.0,South,5.8,-,N/A,,Overcast,190,2012-09-27 23:53:00
7:53 PM,81.0,66.0,60,29.98,10.0,NNE,17.3,25.3,N/A,,Overcast,20,2012-09-28 00:53:00
8:53 PM,80.1,64.0,58,29.99,10.0,NE,9.2,-,N/A,,Overcast,50,2012-09-28 01:53:00
9:53 PM,79.0,64.0,60,30.00,10.0,East,8.1,-,N/A,,Overcast,80,2012-09-28 02:53:00
10:53 PM,78.1,64.0,62,30.01,10.0,East,8.1,-,N/A,,Overcast,100,2012-09-28 03:53:00
11:53 PM,75.9,64.9,69,30.01,10.0,East,4.6,-,N/A,,Overcast,90,2012-09-28 04:53:00